Time,TemperatureF,DewpointF,PressureIn,WindDirection,WindDirectionDegrees,WindSpeedMPH,WindSpeedGustMPH,Humidity,HourlyPrecipIn,Conditions,Clouds,dailyrainin,SoftwareType,DateUTC
2013-03-28 00:00:00,35.2,30.9,30.13,West,271,7.0,7.0,84,0.00,,,0.06,Wunderground v.1.15,2013-03-28 04:00:00,
2013-03-28 00:06:00,35.2,30.6,30.13,WNW,288,8.0,11.0,83,0.00,,,0.00,Wunderground v.1.15,2013-03-28 04:06:00,
2013-03-28 00:12:00,35.3,30.7,30.12,West,270,7.0,10.0,83,0.00,,,0.00,Wunderground v.1.15,2013-03-28 04:12:00,
2013-03-28 00:16:00,35.3,30.7,30.13,WSW,248,7.0,10.0,83,0.00,,,0.00,Wunderground v.1.15,2013-03-28 04:16:00,
2013-03-28 00:20:00,35.3,30.7,30.13,WSW,252,7.0,10.0,83,0.00,,,0.00,Wunderground v.1.15,2013-03-28 04:20:00,
2013-03-28 00:26:00,35.3,30.7,30.12,West,270,8.0,12.0,83,0.00,,,0.00,Wunderground v.1.15,2013-03-28 04:26:00,
2013-03-28 00:32:00,35.2,30.9,30.12,SW,231,8.0,8.0,84,0.00,,,0.00,Wunderground v.1.15,2013-03-28 04:32:00,
2013-03-28 00:38:00,35.0,30.7,30.12,West,270,7.0,11.0,84,0.00,,,0.00,Wunderground v.1.15,2013-03-28 04:38:00,
2013-03-28 00:44:00,35.0,30.7,30.12,WSW,245,6.0,7.0,84,0.00,,,0.00,Wunderground v.1.15,2013-03-28 04:44:00,
2013-03-28 00:50:00,34.8,30.5,30.12,WSW,239,6.0,6.0,84,0.00,,,0.00,Wunderground v.1.15,2013-03-28 04:50:00,
2013-03-28 00:56:00,34.8,30.8,30.12,WSW,242,6.0,6.0,85,0.00,,,0.00,Wunderground v.1.15,2013-03-28 04:56:00,
2013-03-28 01:02:00,34.6,30.6,30.12,SW,221,5.0,5.0,85,0.00,,,0.00,Wunderground v.1.15,2013-03-28 05:02:00,
2013-03-28 01:08:00,34.4,30.4,30.12,SW,225,4.0,5.0,85,0.00,,,0.00,Wunderground v.1.15,2013-03-28 05:08:00,
2013-03-28 01:14:00,34.2,30.4,30.11,SSW,198,4.0,7.0,86,0.00,,,0.00,Wunderground v.1.15,2013-03-28 05:14:00,
2013-03-28 01:20:00,34.0,30.3,30.11,SW,223,4.0,4.0,86,0.00,,,0.00,Wunderground v.1.15,2013-03-28 05:20:00,
2013-03-28 01:26:00,33.9,30.2,30.12,SW,236,3.0,4.0,86,0.00,,,0.00,Wunderground v.1.15,2013-03-28 05:26:00,
2013-03-28 01:32:00,34.0,30.3,30.11,WSW,241,4.0,4.0,86,0.00,,,0.00,Wunderground v.1.15,2013-03-28 05:32:00,
2013-03-28 01:38:00,34.0,30.3,30.11,SSW,197,4.0,4.0,86,0.00,,,0.00,Wunderground v.1.15,2013-03-28 05:38:00,
2013-03-28 01:44:00,33.9,30.4,30.11,South,190,3.0,4.0,87,0.00,,,0.00,Wunderground v.1.15,2013-03-28 05:44:00,
2013-03-28 01:50:00,33.8,30.3,30.11,South,189,3.0,6.0,87,0.00,,,0.00,Wunderground v.1.15,2013-03-28 05:50:00,
2013-03-28 01:58:00,33.7,30.2,30.11,SSW,194,5.0,6.0,87,0.00,,,0.00,Wunderground v.1.15,2013-03-28 05:58:00,
2013-03-28 02:04:00,33.6,30.1,30.11,SW,215,4.0,5.0,87,0.00,,,0.00,Wunderground v.1.15,2013-03-28 06:04:00,
2013-03-28 02:10:00,33.8,30.3,30.11,WSW,241,3.0,4.0,87,0.00,,,0.00,Wunderground v.1.15,2013-03-28 06:10:00,
2013-03-28 02:16:00,34.1,30.4,30.11,WSW,246,2.0,4.0,86,0.00,,,0.00,Wunderground v.1.15,2013-03-28 06:16:00,
2013-03-28 02:22:00,34.6,30.6,30.11,WSW,244,2.0,4.0,85,0.00,,,0.00,Wunderground v.1.15,2013-03-28 06:22:00,
2013-03-28 02:28:00,35.0,30.4,30.11,WSW,240,4.0,8.0,83,0.00,,,0.00,Wunderground v.1.15,2013-03-28 06:28:00,
2013-03-28 02:34:00,35.3,30.4,30.11,WSW,240,6.0,6.0,82,0.00,,,0.00,Wunderground v.1.15,2013-03-28 06:34:00,
2013-03-28 02:40:00,35.4,30.5,30.10,SW,229,4.0,4.0,82,0.00,,,0.00,Wunderground v.1.15,2013-03-28 06:40:00,
2013-03-28 02:48:00,35.3,30.4,30.10,WSW,242,5.0,10.0,82,0.00,,,0.00,Wunderground v.1.15,2013-03-28 06:48:00,
2013-03-28 02:54:00,35.2,30.6,30.10,SW,221,5.0,6.0,83,0.00,,,0.00,Wunderground v.1.15,2013-03-28 06:54:00,
2013-03-28 03:00:00,35.0,30.7,30.10,SW,223,2.0,3.0,84,0.00,,,0.00,Wunderground v.1.15,2013-03-28 07:00:00,
2013-03-28 03:08:00,34.9,30.6,30.10,SSW,213,2.0,4.0,84,0.00,,,0.00,Wunderground v.1.15,2013-03-28 07:08:00,
2013-03-28 03:14:00,34.8,30.5,30.10,WSW,241,3.0,5.0,84,0.00,,,0.00,Wunderground v.1.15,2013-03-28 07:14:00,
2013-03-28 03:20:00,34.9,30.6,30.09,SSW,196,4.0,6.0,84,0.00,,,0.00,Wunderground v.1.15,2013-03-28 07:20:00,
2013-03-28 03:26:00,35.1,30.5,30.09,SSW,209,5.0,8.0,83,0.00,,,0.00,Wunderground v.1.15,2013-03-28 07:26:00,
2013-03-28 03:32:00,35.3,30.4,30.09,SW,224,7.0,7.0,82,0.00,,,0.01,Wunderground v.1.15,2013-03-28 07:32:00,
2013-03-28 03:38:00,35.3,30.4,30.09,WSW,252,5.0,7.0,82,0.00,,,0.01,Wunderground v.1.15,2013-03-28 07:38:00,
2013-03-28 03:44:00,35.3,30.4,30.09,WSW,237,6.0,10.0,82,0.00,,,0.01,Wunderground v.1.15,2013-03-28 07:44:00,
2013-03-28 03:50:00,35.2,30.6,30.09,WSW,247,7.0,8.0,83,0.00,,,0.01,Wunderground v.1.15,2013-03-28 07:50:00,
2013-03-28 03:56:00,35.3,30.4,30.09,West,272,5.0,8.0,82,0.00,,,0.01,Wunderground v.1.15,2013-03-28 07:56:00,
2013-03-28 04:02:00,35.4,30.5,30.09,WSW,252,5.0,10.0,82,0.00,,,0.01,Wunderground v.1.15,2013-03-28 08:02:00,
2013-03-28 04:08:00,35.4,30.5,30.09,SW,232,6.0,10.0,82,0.00,,,0.01,Wunderground v.1.15,2013-03-28 08:08:00,
2013-03-28 04:14:00,35.3,30.7,30.08,WSW,240,4.0,6.0,83,0.00,,,0.01,Wunderground v.1.15,2013-03-28 08:14:00,
2013-03-28 04:20:00,35.2,30.3,30.08,WNW,298,4.0,8.0,82,0.00,,,0.01,Wunderground v.1.15,2013-03-28 08:20:00,
2013-03-28 04:26:00,35.5,30.5,30.09,WSW,257,6.0,9.0,82,0.00,,,0.01,Wunderground v.1.15,2013-03-28 08:26:00,
2013-03-28 04:32:00,35.6,30.6,30.09,West,261,5.0,8.0,82,0.00,,,0.01,Wunderground v.1.15,2013-03-28 08:32:00,
2013-03-28 04:38:00,35.6,30.3,30.09,NNW,327,5.0,8.0,81,0.00,,,0.01,Wunderground v.1.15,2013-03-28 08:38:00,
2013-03-28 04:44:00,35.7,30.1,30.09,West,261,9.0,11.0,80,0.00,,,0.01,Wunderground v.1.15,2013-03-28 08:44:00,
2013-03-28 04:50:00,35.8,30.2,30.09,West,261,8.0,8.0,80,0.00,,,0.01,Wunderground v.1.15,2013-03-28 08:50:00,
2013-03-28 04:58:00,35.6,30.6,30.09,West,263,5.0,9.0,82,0.00,,,0.01,Wunderground v.1.15,2013-03-28 08:58:00,
2013-03-28 05:04:00,35.5,30.2,30.09,NNW,329,5.0,10.0,81,0.00,,,0.01,Wunderground v.1.15,2013-03-28 09:04:00,
2013-03-28 05:10:00,35.5,30.2,30.09,WNW,288,6.0,6.0,81,0.00,,,0.01,Wunderground v.1.15,2013-03-28 09:10:00,
2013-03-28 05:16:00,35.5,30.2,30.09,WSW,248,6.0,8.0,81,0.00,,,0.01,Wunderground v.1.15,2013-03-28 09:16:00,
2013-03-28 05:24:00,35.5,30.2,30.09,WNW,302,5.0,9.0,81,0.00,,,0.01,Wunderground v.1.15,2013-03-28 09:24:00,
2013-03-28 05:30:00,35.4,30.5,30.09,West,261,7.0,7.0,82,0.00,,,0.01,Wunderground v.1.15,2013-03-28 09:30:00,
2013-03-28 05:36:00,35.4,30.1,30.09,NW,313,7.0,10.0,81,0.00,,,0.01,Wunderground v.1.15,2013-03-28 09:36:00,
2013-03-28 05:42:00,35.6,30.0,30.09,WSW,243,7.0,8.0,80,0.00,,,0.01,Wunderground v.1.15,2013-03-28 09:42:00,
2013-03-28 05:48:00,35.7,30.1,30.08,WSW,257,6.0,8.0,80,0.00,,,0.01,Wunderground v.1.15,2013-03-28 09:48:00,
2013-03-28 05:54:00,35.7,30.1,30.09,WSW,250,3.0,5.0,80,0.00,,,0.01,Wunderground v.1.15,2013-03-28 09:54:00,
2013-03-28 06:00:00,35.6,30.0,30.09,WSW,258,3.0,3.0,80,0.00,,,0.01,Wunderground v.1.15,2013-03-28 10:00:00,
2013-03-28 06:06:00,35.7,30.1,30.09,WNW,288,5.0,6.0,80,0.00,,,0.01,Wunderground v.1.15,2013-03-28 10:06:00,
2013-03-28 06:12:00,35.7,30.1,30.09,West,279,4.0,4.0,80,0.00,,,0.01,Wunderground v.1.15,2013-03-28 10:12:00,
2013-03-28 06:18:00,35.7,30.1,30.09,West,279,4.0,8.0,80,0.00,,,0.01,Wunderground v.1.15,2013-03-28 10:18:00,
2013-03-28 06:24:00,35.7,30.1,30.09,West,279,6.0,7.0,80,0.00,,,0.01,Wunderground v.1.15,2013-03-28 10:24:00,
2013-03-28 06:30:00,35.7,30.1,30.09,West,267,6.0,13.0,80,0.00,,,0.01,Wunderground v.1.15,2013-03-28 10:30:00,
2013-03-28 06:36:00,35.7,30.4,30.09,WNW,286,8.0,15.0,81,0.00,,,0.01,Wunderground v.1.15,2013-03-28 10:36:00,
2013-03-28 06:44:00,35.3,30.4,30.10,SW,234,5.0,11.0,82,0.00,,,0.02,Wunderground v.1.15,2013-03-28 10:44:00,
2013-03-28 06:50:00,35.1,30.5,30.10,SW,221,6.0,6.0,83,0.00,,,0.02,Wunderground v.1.15,2013-03-28 10:50:00,
2013-03-28 06:56:00,35.0,30.7,30.10,WSW,239,6.0,9.0,84,0.00,,,0.02,Wunderground v.1.15,2013-03-28 10:56:00,
2013-03-28 07:02:00,34.9,30.8,30.10,WSW,252,6.0,8.0,85,0.00,,,0.02,Wunderground v.1.15,2013-03-28 11:02:00,
2013-03-28 07:08:00,34.9,30.6,30.10,West,273,7.0,9.0,84,0.00,,,0.02,Wunderground v.1.15,2013-03-28 11:08:00,
2013-03-28 07:14:00,34.7,30.7,30.11,WSW,240,5.0,6.0,85,0.00,,,0.02,Wunderground v.1.15,2013-03-28 11:14:00,
2013-03-28 07:20:00,34.5,30.7,30.11,SW,225,4.0,10.0,86,0.00,,,0.02,Wunderground v.1.15,2013-03-28 11:20:00,
2013-03-28 07:26:00,34.3,30.5,30.11,West,267,6.0,11.0,86,0.00,,,0.02,Wunderground v.1.15,2013-03-28 11:26:00,
2013-03-28 07:32:00,34.1,30.6,30.11,West,263,5.0,5.0,87,0.00,,,0.02,Wunderground v.1.15,2013-03-28 11:32:00,
2013-03-28 07:38:00,33.9,30.4,30.11,SW,219,3.0,5.0,87,0.00,,,0.02,Wunderground v.1.15,2013-03-28 11:38:00,
2013-03-28 07:44:00,33.6,30.1,30.12,WSW,246,2.0,3.0,87,0.00,,,0.02,Wunderground v.1.15,2013-03-28 11:44:00,
2013-03-28 07:50:00,33.5,30.3,30.12,WSW,245,2.0,4.0,88,0.00,,,0.02,Wunderground v.1.15,2013-03-28 11:50:00,
2013-03-28 07:56:00,33.3,30.1,30.12,WSW,246,1.0,1.0,88,0.00,,,0.02,Wunderground v.1.15,2013-03-28 11:56:00,
2013-03-28 08:02:00,33.3,30.1,30.13,SW,228,2.0,2.0,88,0.00,,,0.02,Wunderground v.1.15,2013-03-28 12:02:00,
2013-03-28 08:08:00,33.4,30.2,30.13,WSW,258,2.0,6.0,88,0.00,,,0.02,Wunderground v.1.15,2013-03-28 12:08:00,
2013-03-28 08:14:00,33.7,30.2,30.13,WSW,250,4.0,4.0,87,0.00,,,0.02,Wunderground v.1.15,2013-03-28 12:14:00,
2013-03-28 08:20:00,33.4,30.2,30.13,WSW,242,4.0,4.0,88,0.00,,,0.02,Wunderground v.1.15,2013-03-28 12:20:00,
2013-03-28 08:26:00,33.0,29.8,30.14,WSW,243,3.0,4.0,88,0.00,,,0.02,Wunderground v.1.15,2013-03-28 12:26:00,
2013-03-28 08:32:00,33.1,29.9,30.14,NNW,329,4.0,9.0,88,0.00,,,0.02,Wunderground v.1.15,2013-03-28 12:32:00,
2013-03-28 08:38:00,33.3,30.1,30.14,North,350,6.0,9.0,88,0.00,,,0.02,Wunderground v.1.15,2013-03-28 12:38:00,
2013-03-28 08:44:00,33.4,29.9,30.14,North,11,6.0,8.0,87,0.00,,,0.02,Wunderground v.1.15,2013-03-28 12:44:00,
2013-03-28 08:50:00,33.4,29.9,30.14,North,5,6.0,6.0,87,0.00,,,0.02,Wunderground v.1.15,2013-03-28 12:50:00,
2013-03-28 08:58:00,33.5,30.0,30.14,NNE,14,7.0,10.0,87,0.00,,,0.03,Wunderground v.1.15,2013-03-28 12:58:00,
2013-03-28 09:04:00,33.7,30.0,30.15,North,10,7.0,7.0,86,0.00,,,0.03,Wunderground v.1.15,2013-03-28 13:04:00,
2013-03-28 09:10:00,34.1,30.1,30.15,NNE,30,6.0,7.0,85,0.00,,,0.03,Wunderground v.1.15,2013-03-28 13:10:00,
2013-03-28 09:16:00,34.3,30.3,30.15,NNE,12,5.0,5.0,85,0.00,,,0.03,Wunderground v.1.15,2013-03-28 13:16:00,
2013-03-28 09:22:00,34.6,30.3,30.15,ENE,63,5.0,5.0,84,0.00,,,0.03,Wunderground v.1.15,2013-03-28 13:22:00,
2013-03-28 09:28:00,34.8,30.2,30.15,North,5,6.0,6.0,83,0.00,,,0.03,Wunderground v.1.15,2013-03-28 13:28:00,
2013-03-28 09:34:00,34.9,30.3,30.15,NNW,344,5.0,9.0,83,0.00,,,0.03,Wunderground v.1.15,2013-03-28 13:34:00,
2013-03-28 09:40:00,35.3,30.4,30.15,NNE,13,6.0,10.0,82,0.00,,,0.03,Wunderground v.1.15,2013-03-28 13:40:00,
2013-03-28 09:48:00,35.4,30.5,30.16,ENE,59,6.0,7.0,82,0.00,,,0.04,Wunderground v.1.15,2013-03-28 13:48:00,
2013-03-28 09:54:00,35.4,30.5,30.16,ENE,68,4.0,5.0,82,0.00,,,0.04,Wunderground v.1.15,2013-03-28 13:54:00,
2013-03-28 10:00:00,35.5,30.8,30.16,NE,35,4.0,4.0,83,0.00,,,0.04,Wunderground v.1.15,2013-03-28 14:00:00,
2013-03-28 10:06:00,35.5,30.5,30.16,NE,46,5.0,6.0,82,0.00,,,0.04,Wunderground v.1.15,2013-03-28 14:06:00,
2013-03-28 10:12:00,35.3,30.9,30.16,NE,40,5.0,5.0,84,0.00,,,0.04,Wunderground v.1.15,2013-03-28 14:12:00,
2013-03-28 10:18:00,35.2,31.1,30.17,NNE,27,6.0,7.0,85,0.00,,,0.04,Wunderground v.1.15,2013-03-28 14:18:00,
2013-03-28 10:24:00,35.5,31.4,30.16,NE,36,5.0,6.0,85,0.00,,,0.04,Wunderground v.1.15,2013-03-28 14:24:00,
2013-03-28 10:30:00,35.6,30.9,30.16,East,81,3.0,3.0,83,0.00,,,0.04,Wunderground v.1.15,2013-03-28 14:30:00,
2013-03-28 10:36:00,35.9,31.2,30.17,NNE,28,3.0,3.0,83,0.00,,,0.04,Wunderground v.1.15,2013-03-28 14:36:00,
2013-03-28 10:42:00,36.0,31.0,30.17,North,355,3.0,4.0,82,0.00,,,0.04,Wunderground v.1.15,2013-03-28 14:42:00,
2013-03-28 10:48:00,35.9,31.2,30.17,North,349,3.0,4.0,83,0.00,,,0.04,Wunderground v.1.15,2013-03-28 14:48:00,
2013-03-28 10:54:00,36.2,31.8,30.17,North,349,1.0,3.0,84,0.00,,,0.04,Wunderground v.1.15,2013-03-28 14:54:00,
2013-03-28 11:00:00,36.4,32.0,30.17,NW,325,2.0,5.0,84,0.00,,,0.04,Wunderground v.1.15,2013-03-28 15:00:00,
2013-03-28 11:06:00,37.1,31.8,30.17,NW,304,5.0,11.0,81,0.00,,,0.04,Wunderground v.1.15,2013-03-28 15:06:00,
2013-03-28 11:12:00,37.8,32.5,30.17,NNW,342,5.0,5.0,81,0.00,,,0.04,Wunderground v.1.15,2013-03-28 15:12:00,
2013-03-28 11:18:00,38.0,31.7,30.17,NE,42,6.0,8.0,78,0.00,,,0.04,Wunderground v.1.15,2013-03-28 15:18:00,
2013-03-28 11:24:00,37.9,32.3,30.17,NW,322,8.0,11.0,80,0.00,,,0.04,Wunderground v.1.15,2013-03-28 15:24:00,
2013-03-28 11:30:00,38.1,33.1,30.17,NNE,17,7.0,7.0,82,0.00,,,0.04,Wunderground v.1.15,2013-03-28 15:30:00,
2013-03-28 11:38:00,38.5,33.2,30.17,North,11,3.0,7.0,81,0.00,,,0.04,Wunderground v.1.15,2013-03-28 15:38:00,
2013-03-28 11:44:00,39.0,32.1,30.18,NW,324,4.0,6.0,76,0.00,,,0.04,Wunderground v.1.15,2013-03-28 15:44:00,
2013-03-28 11:50:00,38.7,31.8,30.17,WNW,286,7.0,10.0,76,0.00,,,0.04,Wunderground v.1.15,2013-03-28 15:50:00,
2013-03-28 11:58:00,39.1,32.2,30.18,WNW,291,7.0,10.0,76,0.00,,,0.04,Wunderground v.1.15,2013-03-28 15:58:00,
2013-03-28 12:04:00,38.7,32.7,30.18,NW,322,7.0,10.0,79,0.00,,,0.04,Wunderground v.1.15,2013-03-28 16:04:00,
2013-03-28 12:10:00,38.1,32.5,30.18,WNW,299,7.0,10.0,80,0.00,,,0.04,Wunderground v.1.15,2013-03-28 16:10:00,
2013-03-28 12:16:00,38.6,33.6,30.18,NW,312,7.0,10.0,82,0.00,,,0.04,Wunderground v.1.15,2013-03-28 16:16:00,
2013-03-28 12:22:00,39.1,33.1,30.18,NW,321,7.0,9.0,79,0.00,,,0.04,Wunderground v.1.15,2013-03-28 16:22:00,
2013-03-28 12:28:00,39.0,32.1,30.18,NW,311,10.0,14.0,76,0.00,,,0.04,Wunderground v.1.15,2013-03-28 16:28:00,
2013-03-28 12:34:00,39.0,31.7,30.18,NW,325,11.0,13.0,75,0.00,,,0.04,Wunderground v.1.15,2013-03-28 16:34:00,
2013-03-28 12:40:00,39.7,32.4,30.18,WNW,289,9.0,13.0,75,0.00,,,0.04,Wunderground v.1.15,2013-03-28 16:40:00,
2013-03-28 12:48:00,40.1,32.8,30.17,North,360,8.0,14.0,75,0.00,,,0.04,Wunderground v.1.15,2013-03-28 16:48:00,
2013-03-28 12:54:00,39.7,32.1,30.18,WNW,284,9.0,13.0,74,0.00,,,0.04,Wunderground v.1.15,2013-03-28 16:54:00,
2013-03-28 13:00:00,39.3,33.0,30.18,NNW,329,11.0,12.0,78,0.00,,,0.04,Wunderground v.1.15,2013-03-28 17:00:00,
2013-03-28 13:06:00,39.9,32.6,30.18,NW,307,11.0,12.0,75,0.00,,,0.04,Wunderground v.1.15,2013-03-28 17:06:00,
2013-03-28 13:12:00,39.3,32.4,30.18,NNW,339,11.0,11.0,76,0.00,,,0.04,Wunderground v.1.15,2013-03-28 17:12:00,
2013-03-28 13:18:00,39.3,32.0,30.18,NW,314,8.0,11.0,75,0.00,,,0.04,Wunderground v.1.15,2013-03-28 17:18:00,
2013-03-28 13:24:00,39.1,32.2,30.18,WNW,296,6.0,9.0,76,0.00,,,0.04,Wunderground v.1.15,2013-03-28 17:24:00,
2013-03-28 13:30:00,39.9,33.6,30.18,NNW,331,6.0,6.0,78,0.00,,,0.04,Wunderground v.1.15,2013-03-28 17:30:00,
2013-03-28 13:38:00,39.3,32.4,30.18,NW,316,8.0,10.0,76,0.00,,,0.04,Wunderground v.1.15,2013-03-28 17:38:00,
2013-03-28 13:44:00,39.2,33.2,30.18,NW,312,9.0,9.0,79,0.00,,,0.04,Wunderground v.1.15,2013-03-28 17:44:00,
2013-03-28 13:50:00,38.6,33.0,30.18,WNW,294,7.0,8.0,80,0.00,,,0.04,Wunderground v.1.15,2013-03-28 17:50:00,
2013-03-28 13:56:00,37.9,33.8,30.18,West,274,7.0,8.0,85,0.00,,,0.04,Wunderground v.1.15,2013-03-28 17:56:00,
2013-03-28 14:02:00,38.5,33.8,30.18,NW,306,6.0,8.0,83,0.00,,,0.04,Wunderground v.1.15,2013-03-28 18:02:00,
2013-03-28 14:08:00,39.0,34.0,30.18,West,273,7.0,8.0,82,0.00,,,0.04,Wunderground v.1.15,2013-03-28 18:08:00,
2013-03-28 14:14:00,39.2,32.9,30.19,WNW,294,7.0,9.0,78,0.00,,,0.04,Wunderground v.1.15,2013-03-28 18:14:00,
2013-03-28 14:20:00,39.3,33.3,30.19,West,276,7.0,8.0,79,0.00,,,0.04,Wunderground v.1.15,2013-03-28 18:20:00,
2013-03-28 14:26:00,39.2,33.2,30.18,WNW,294,7.0,10.0,79,0.00,,,0.04,Wunderground v.1.15,2013-03-28 18:26:00,
2013-03-28 14:32:00,39.3,32.7,30.18,West,272,5.0,7.0,77,0.00,,,0.04,Wunderground v.1.15,2013-03-28 18:32:00,
2013-03-28 14:38:00,39.3,32.4,30.18,WSW,254,6.0,9.0,76,0.00,,,0.04,Wunderground v.1.15,2013-03-28 18:38:00,
2013-03-28 14:44:00,39.1,32.2,30.18,NW,323,9.0,9.0,76,0.00,,,0.04,Wunderground v.1.15,2013-03-28 18:44:00,
2013-03-28 14:50:00,39.4,32.5,30.18,NW,309,9.0,11.0,76,0.00,,,0.04,Wunderground v.1.15,2013-03-28 18:50:00,
2013-03-28 14:56:00,39.7,33.1,30.18,NW,313,8.0,11.0,77,0.00,,,0.04,Wunderground v.1.15,2013-03-28 18:56:00,
2013-03-28 15:02:00,39.8,32.5,30.18,West,279,8.0,11.0,75,0.00,,,0.04,Wunderground v.1.15,2013-03-28 19:02:00,
2013-03-28 15:08:00,39.5,32.6,30.18,West,276,8.0,13.0,76,0.00,,,0.04,Wunderground v.1.15,2013-03-28 19:08:00,
2013-03-28 15:14:00,39.1,33.1,30.18,West,277,9.0,13.0,79,0.00,,,0.04,Wunderground v.1.15,2013-03-28 19:14:00,
2013-03-28 15:20:00,38.9,32.6,30.18,WNW,285,8.0,9.0,78,0.00,,,0.04,Wunderground v.1.15,2013-03-28 19:20:00,
2013-03-28 15:26:00,39.1,33.1,30.18,WSW,248,7.0,14.0,79,0.00,,,0.04,Wunderground v.1.15,2013-03-28 19:26:00,
2013-03-28 15:32:00,39.2,32.9,30.18,WSW,253,7.0,12.0,78,0.00,,,0.04,Wunderground v.1.15,2013-03-28 19:32:00,
2013-03-28 15:38:00,39.6,33.3,30.18,WNW,290,8.0,12.0,78,0.00,,,0.04,Wunderground v.1.15,2013-03-28 19:38:00,
2013-03-28 15:44:00,39.9,32.9,30.18,NW,316,6.0,11.0,76,0.00,,,0.04,Wunderground v.1.15,2013-03-28 19:44:00,
2013-03-28 15:50:00,39.9,32.9,30.18,NW,310,8.0,8.0,76,0.00,,,0.04,Wunderground v.1.15,2013-03-28 19:50:00,
2013-03-28 15:56:00,40.4,33.1,30.18,WSW,250,8.0,9.0,75,0.00,,,0.04,Wunderground v.1.15,2013-03-28 19:56:00,
2013-03-28 16:02:00,40.0,33.0,30.18,West,281,7.0,7.0,76,0.00,,,0.04,Wunderground v.1.15,2013-03-28 20:02:00,
2013-03-28 16:08:00,39.6,33.0,30.18,WSW,248,7.0,12.0,77,0.00,,,0.04,Wunderground v.1.15,2013-03-28 20:08:00,
2013-03-28 16:14:00,39.8,33.2,30.18,West,275,7.0,8.0,77,0.00,,,0.04,Wunderground v.1.15,2013-03-28 20:14:00,
2013-03-28 16:20:00,39.9,32.9,30.18,West,265,6.0,8.0,76,0.00,,,0.04,Wunderground v.1.15,2013-03-28 20:20:00,
2013-03-28 16:26:00,39.9,32.6,30.18,West,271,7.0,11.0,75,0.00,,,0.04,Wunderground v.1.15,2013-03-28 20:26:00,
2013-03-28 16:32:00,39.7,32.4,30.18,West,261,8.0,16.0,75,0.00,,,0.04,Wunderground v.1.15,2013-03-28 20:32:00,
2013-03-28 16:38:00,39.3,32.7,30.18,West,269,10.0,16.0,77,0.00,,,0.04,Wunderground v.1.15,2013-03-28 20:38:00,
2013-03-28 16:48:00,39.2,33.9,30.18,NW,315,8.0,10.0,81,0.00,,,0.04,Wunderground v.1.15,2013-03-28 20:48:00,
2013-03-28 16:54:00,39.7,32.8,30.18,NNW,327,6.0,9.0,76,0.00,,,0.04,Wunderground v.1.15,2013-03-28 20:54:00,
2013-03-28 17:00:00,40.3,33.7,30.18,North,9,5.0,9.0,77,0.00,,,0.04,Wunderground v.1.15,2013-03-28 21:00:00,
2013-03-28 17:06:00,39.2,33.9,30.19,NW,313,7.0,10.0,81,0.00,,,0.04,Wunderground v.1.15,2013-03-28 21:06:00,
2013-03-28 17:12:00,39.4,34.7,30.18,North,355,6.0,6.0,83,0.00,,,0.04,Wunderground v.1.15,2013-03-28 21:12:00,
2013-03-28 17:18:00,39.7,34.0,30.19,NNW,342,6.0,8.0,80,0.00,,,0.04,Wunderground v.1.15,2013-03-28 21:18:00,
2013-03-28 17:24:00,39.8,33.2,30.19,NNW,348,7.0,11.0,77,0.00,,,0.04,Wunderground v.1.15,2013-03-28 21:24:00,
2013-03-28 17:30:00,40.0,33.0,30.19,NNW,344,6.0,6.0,76,0.00,,,0.04,Wunderground v.1.15,2013-03-28 21:30:00,
2013-03-28 17:36:00,40.3,33.0,30.19,WNW,294,5.0,7.0,75,0.00,,,0.04,Wunderground v.1.15,2013-03-28 21:36:00,
2013-03-28 17:42:00,40.4,32.4,30.19,WNW,286,4.0,4.0,73,0.00,,,0.04,Wunderground v.1.15,2013-03-28 21:42:00,
2013-03-28 17:48:00,40.5,32.2,30.19,NW,307,3.0,5.0,72,0.00,,,0.04,Wunderground v.1.15,2013-03-28 21:48:00,
2013-03-28 17:54:00,40.6,31.9,30.19,WNW,286,4.0,7.0,71,0.00,,,0.04,Wunderground v.1.15,2013-03-28 21:54:00,
2013-03-28 18:00:00,40.8,32.5,30.19,NW,323,4.0,8.0,72,0.00,,,0.04,Wunderground v.1.15,2013-03-28 22:00:00,
2013-03-28 18:06:00,40.7,31.7,30.19,NNW,328,4.0,8.0,70,0.00,,,0.04,Wunderground v.1.15,2013-03-28 22:06:00,
2013-03-28 18:12:00,40.8,31.8,30.20,West,273,4.0,4.0,70,0.00,,,0.04,Wunderground v.1.15,2013-03-28 22:12:00,
2013-03-28 18:18:00,40.8,31.8,30.20,NW,304,3.0,7.0,70,0.00,,,0.04,Wunderground v.1.15,2013-03-28 22:18:00,
2013-03-28 18:24:00,40.6,31.2,30.20,WNW,292,7.0,8.0,69,0.00,,,0.04,Wunderground v.1.15,2013-03-28 22:24:00,
2013-03-28 18:30:00,40.4,31.4,30.20,WNW,286,9.0,10.0,70,0.00,,,0.04,Wunderground v.1.15,2013-03-28 22:30:00,
2013-03-28 18:36:00,40.3,31.3,30.21,NNW,344,8.0,11.0,70,0.00,,,0.04,Wunderground v.1.15,2013-03-28 22:36:00,
2013-03-28 18:42:00,40.3,31.6,30.21,NW,305,5.0,6.0,71,0.00,,,0.04,Wunderground v.1.15,2013-03-28 22:42:00,
2013-03-28 18:48:00,40.2,31.9,30.21,NW,305,5.0,9.0,72,0.00,,,0.04,Wunderground v.1.15,2013-03-28 22:48:00,
2013-03-28 18:54:00,40.1,31.8,30.21,WNW,299,7.0,9.0,72,0.00,,,0.04,Wunderground v.1.15,2013-03-28 22:54:00,
2013-03-28 19:00:00,40.0,31.7,30.21,WNW,286,7.0,7.0,72,0.00,,,0.04,Wunderground v.1.15,2013-03-28 23:00:00,
2013-03-28 19:08:00,39.9,31.9,30.21,WNW,286,3.0,7.0,73,0.00,,,0.04,Wunderground v.1.15,2013-03-28 23:08:00,
2013-03-28 19:14:00,39.8,31.5,30.21,NNW,339,2.0,6.0,72,0.00,,,0.04,Wunderground v.1.15,2013-03-28 23:14:00,
2013-03-28 19:20:00,39.7,31.1,30.22,NW,311,4.0,4.0,71,0.00,,,0.04,Wunderground v.1.15,2013-03-28 23:20:00,
2013-03-28 19:28:00,39.7,31.4,30.22,WNW,296,4.0,7.0,72,0.00,,,0.04,Wunderground v.1.15,2013-03-28 23:28:00,
2013-03-28 19:34:00,39.7,31.4,30.22,NW,313,4.0,4.0,72,0.00,,,0.04,Wunderground v.1.15,2013-03-28 23:34:00,
2013-03-28 19:40:00,39.6,31.7,30.22,NNW,336,5.0,5.0,73,0.00,,,0.04,Wunderground v.1.15,2013-03-28 23:40:00,
2013-03-28 19:46:00,39.5,31.6,30.22,WNW,293,4.0,7.0,73,0.00,,,0.04,Wunderground v.1.15,2013-03-28 23:46:00,
2013-03-28 19:52:00,39.4,31.5,30.22,WNW,303,4.0,8.0,73,0.00,,,0.04,Wunderground v.1.15,2013-03-28 23:52:00,
2013-03-28 19:58:00,39.5,31.6,30.22,NW,305,5.0,8.0,73,0.00,,,0.04,Wunderground v.1.15,2013-03-28 23:58:00,
2013-03-28 20:04:00,39.4,31.5,30.23,NW,305,2.0,4.0,73,0.00,,,0.04,Wunderground v.1.15,2013-03-29 00:04:00,
2013-03-28 20:10:00,39.3,31.7,30.23,West,271,2.0,2.0,74,0.00,,,0.04,Wunderground v.1.15,2013-03-29 00:10:00,
2013-03-28 20:16:00,39.2,31.3,30.23,West,271,3.0,5.0,73,0.00,,,0.04,Wunderground v.1.15,2013-03-29 00:16:00,
2013-03-28 20:22:00,39.4,31.5,30.23,West,275,3.0,4.0,73,0.00,,,0.04,Wunderground v.1.15,2013-03-29 00:22:00,
2013-03-28 20:28:00,39.4,31.1,30.23,NW,307,3.0,4.0,72,0.00,,,0.04,Wunderground v.1.15,2013-03-29 00:28:00,
2013-03-28 20:34:00,39.4,31.1,30.24,West,269,5.0,6.0,72,0.00,,,0.04,Wunderground v.1.15,2013-03-29 00:34:00,
2013-03-28 20:40:00,39.4,31.5,30.23,West,270,4.0,4.0,73,0.00,,,0.04,Wunderground v.1.15,2013-03-29 00:40:00,
2013-03-28 20:46:00,39.3,31.4,30.24,West,269,2.0,4.0,73,0.00,,,0.04,Wunderground v.1.15,2013-03-29 00:46:00,
2013-03-28 20:52:00,39.2,31.6,30.24,WNW,291,3.0,4.0,74,0.00,,,0.04,Wunderground v.1.15,2013-03-29 00:52:00,
2013-03-28 20:58:00,39.0,31.4,30.24,West,281,3.0,7.0,74,0.00,,,0.04,Wunderground v.1.15,2013-03-29 00:58:00,
2013-03-28 21:04:00,39.1,31.2,30.24,WSW,241,3.0,10.0,73,0.00,,,0.04,Wunderground v.1.15,2013-03-29 01:04:00,
2013-03-28 21:10:00,39.1,31.5,30.24,NW,310,5.0,5.0,74,0.00,,,0.04,Wunderground v.1.15,2013-03-29 01:10:00,
2013-03-28 21:16:00,39.2,31.3,30.24,NW,311,6.0,11.0,73,0.00,,,0.04,Wunderground v.1.15,2013-03-29 01:16:00,
2013-03-28 21:22:00,39.2,31.3,30.25,NW,305,7.0,8.0,73,0.00,,,0.04,Wunderground v.1.15,2013-03-29 01:22:00,
2013-03-28 21:28:00,39.2,31.6,30.24,NW,324,6.0,8.0,74,0.00,,,0.04,Wunderground v.1.15,2013-03-29 01:28:00,
2013-03-28 21:34:00,39.1,31.8,30.25,NW,314,4.0,5.0,75,0.00,,,0.04,Wunderground v.1.15,2013-03-29 01:34:00,
2013-03-28 21:40:00,38.9,31.3,30.25,NW,314,1.0,2.0,74,0.00,,,0.04,Wunderground v.1.15,2013-03-29 01:40:00,
2013-03-28 21:46:00,38.9,31.3,30.25,NW,315,2.0,4.0,74,0.00,,,0.04,Wunderground v.1.15,2013-03-29 01:46:00,
2013-03-28 21:52:00,38.9,31.6,30.25,NW,315,2.0,3.0,75,0.00,,,0.04,Wunderground v.1.15,2013-03-29 01:52:00,
2013-03-28 21:58:00,38.7,31.5,30.25,NW,315,1.0,3.0,75,0.00,,,0.04,Wunderground v.1.15,2013-03-29 01:58:00,
2013-03-28 22:04:00,38.7,32.1,30.25,NW,315,0.0,1.0,77,0.00,,,0.04,Wunderground v.1.15,2013-03-29 02:04:00,
2013-03-28 22:10:00,38.5,31.6,30.25,North,349,0.0,4.0,76,0.00,,,0.04,Wunderground v.1.15,2013-03-29 02:10:00,
2013-03-28 22:16:00,38.4,31.8,30.25,NNE,14,3.0,5.0,77,0.00,,,0.04,Wunderground v.1.15,2013-03-29 02:16:00,
2013-03-28 22:22:00,38.3,31.7,30.25,North,351,3.0,5.0,77,0.00,,,0.04,Wunderground v.1.15,2013-03-29 02:22:00,
2013-03-28 22:28:00,38.3,31.7,30.26,North,11,5.0,7.0,77,0.00,,,0.04,Wunderground v.1.15,2013-03-29 02:28:00,
2013-03-28 22:34:00,38.2,31.6,30.26,NNW,339,5.0,5.0,77,0.00,,,0.04,Wunderground v.1.15,2013-03-29 02:34:00,
2013-03-28 22:40:00,38.1,31.5,30.26,North,5,5.0,5.0,77,0.00,,,0.04,Wunderground v.1.15,2013-03-29 02:40:00,
2013-03-28 22:46:00,38.0,31.7,30.25,North,9,6.0,9.0,78,0.00,,,0.04,Wunderground v.1.15,2013-03-29 02:46:00,
2013-03-28 22:52:00,38.0,31.7,30.26,NNE,19,8.0,8.0,78,0.00,,,0.04,Wunderground v.1.15,2013-03-29 02:52:00,
2013-03-28 22:58:00,37.9,31.7,30.25,North,10,8.0,8.0,78,0.00,,,0.04,Wunderground v.1.15,2013-03-29 02:58:00,
2013-03-28 23:04:00,37.9,31.3,30.25,North,360,9.0,11.0,77,0.00,,,0.04,Wunderground v.1.15,2013-03-29 03:04:00,
2013-03-28 23:10:00,38.0,31.4,30.25,NNE,17,7.0,7.0,77,0.00,,,0.04,Wunderground v.1.15,2013-03-29 03:10:00,
2013-03-28 23:16:00,37.9,31.0,30.26,North,5,4.0,7.0,76,0.00,,,0.04,Wunderground v.1.15,2013-03-29 03:16:00,
2013-03-28 23:22:00,37.8,30.9,30.26,North,355,4.0,6.0,76,0.00,,,0.04,Wunderground v.1.15,2013-03-29 03:22:00,
2013-03-28 23:28:00,37.8,30.9,30.26,NW,319,4.0,6.0,76,0.00,,,0.04,Wunderground v.1.15,2013-03-29 03:28:00,
2013-03-28 23:34:00,37.7,30.8,30.25,NW,325,2.0,4.0,76,0.00,,,0.04,Wunderground v.1.15,2013-03-29 03:34:00,
2013-03-28 23:40:00,37.6,31.0,30.26,NE,37,3.0,3.0,77,0.00,,,0.04,Wunderground v.1.15,2013-03-29 03:40:00,
2013-03-28 23:46:00,37.5,31.3,30.26,North,11,4.0,5.0,78,0.00,,,0.04,Wunderground v.1.15,2013-03-29 03:46:00,
2013-03-28 23:52:00,37.3,31.1,30.26,North,11,3.0,4.0,78,0.00,,,0.04,Wunderground v.1.15,2013-03-29 03:52:00,
2013-03-28 23:58:00,37.3,30.7,30.26,NW,315,3.0,6.0,77,0.00,,,0.04,Wunderground v.1.15,2013-03-29 03:58:00,